Weather observations for the past three days for
Ukiah Municipal Airport
Metric (Imperial)
Date Time (pdt) Wind (kph) Vis. (km) Weather Sky Cond. Temperature (ºC) Relative Humidity Wind Chill (°C) Heat Index (°C) Pressure Precipitation (cm)
Air Dwpt 6 hour altimeter (cm) sea level (mb) 1 hr 3 hr 6 hr
Max. Min.
21 08:56 Calm 16.09 Fair CLR 20.6 10.6 53% 75.69 1008.4
21 07:56 Calm 16.09 Fair CLR 17.2 9.4 60% 75.72 1008.6
21 06:56 Calm 16.09 Fair CLR 13.3 7.8 70% 75.72 1008.8
21 05:56 Calm 16.09 Fair CLR 12.2 7.2 72% 75.72 1008.8
21 04:56 Calm 16.09 Fair CLR 13.3 7.8 20.6 12.8 70% 75.69 1008.5
21 03:56 Calm 16.09 Fair CLR 13.3 7.8 70% 75.69 1008.5
21 02:56 Calm 16.09 Fair CLR 13.9 7.8 67% 75.72 1008.5
21 01:56 Calm 16.09 Fair CLR 15.6 7.8 60% 75.72 1008.6
21 00:56 Calm 16.09 Fair CLR 16.7 7.2 54% 75.72 1008.8
20 23:56 Calm 16.09 Fair CLR 18.3 6.1 45% 75.74 1008.9
20 22:56 Calm 16.09 Fair CLR 20.6 6.7 33.3 20 41% 75.74 1008.9
20 21:56 Calm 16.09 Fair CLR 21.7 5.6 35% 75.72 1008.6
20 20:56 S 6 16.09 Fair CLR 22.8 3.9 29% 75.69 1008.3
20 19:56 N 7 16.09 Fair CLR 27.2 3.9 22% 26 75.64 1007.8
20 18:56 N 15 G 26 16.09 Fair CLR 29.4 -2.2 13% 28 75.64 1007.6
20 17:56 N 13 16.09 Fair CLR 31.7 0 13% 30 75.62 1007.4
20 16:56 NW 13 16.09 Fair CLR 32.8 1.1 33.3 22.8 13% 30 75.64 1007.6
20 15:56 W 11 G 30 16.09 Fair CLR 32.2 3.9 17% 30 75.64 1007.6
20 14:56 N 15 16.09 Fair CLR 32.8 7.8 21% 31 75.67 1007.9
20 13:56 Vrbl 6 16.09 Fair CLR 31.1 7.8 23% 29 75.72 1008.5
20 12:56 SE 7 16.09 Fair CLR 28.3 7.8 27% 27 75.77 1009.3
20 11:56 Calm 16.09 Fair CLR 26.7 6.7 28% 26 75.79 1009.6
20 10:56 Calm 16.09 Fair CLR 23.3 8.3 23.3 10.6 38% 75.82 1010.0
20 09:56 Calm 16.09 Fair CLR 20.6 7.8 44% 75.84 1010.3
20 08:56 Calm 16.09 Fair CLR 17.2 6.1 48% 75.84 1010.6
20 07:56 Calm 16.09 Fair CLR 14.4 6.7 60% 75.87 1010.9
20 06:56 Calm 16.09 Fair CLR 11.1 6.7 75% 75.87 1010.8
20 05:56 Calm 16.09 Fair CLR 11.1 7.2 77% 75.87 1010.8
20 04:56 Calm 16.09 Fair CLR 11.7 5.6 18.9 11.1 66% 75.84 1010.3
20 03:56 Calm 16.09 Fair CLR 11.7 5 64% 75.82 1010.0
20 02:56 Calm 16.09 Fair CLR 12.8 5.6 62% 75.82 1010.0
20 01:56 Calm 16.09 Fair CLR 14.4 5.6 56% 75.84 1010.3
20 00:56 Calm 16.09 Fair CLR 15.6 5 50% 75.87 1010.5
19 23:56 E 6 16.09 Fair CLR 16.1 5.6 50% 75.87 1010.6
19 22:56 Calm 16.09 Fair CLR 18.9 2.2 31.1 18.3 33% 75.87 1010.8
19 21:56 Calm 16.09 Fair CLR 19.4 4.4 37% 75.84 1010.5
19 20:56 Vrbl 6 16.09 Fair CLR 22.8 2.8 27% 75.82 1010.3
19 19:56 N 9 16.09 Fair CLR 25.6 3.3 24% 25 75.79 1009.7
19 18:56 E 7 16.09 Fair CLR 27.8 3.3 21% 27 75.74 1009.0
19 17:56 E 9 16.09 Fair CLR 30 5 20% 28 75.72 1008.7
19 16:56 W 17 G 33 16.09 Fair CLR 30.6 3.3 32.8 23.9 18% 29 75.69 1008.4
19 15:56 W 13 16.09 Fair CLR 31.7 3.9 17% 30 75.69 1008.3
19 14:56 Calm 16.09 Fair CLR 31.7 3.9 17% 30 75.72 1008.6
19 13:56 E 7 16.09 Fair CLR 30.6 6.1 21% 29 75.74 1009.1
19 12:56 Vrbl 6 16.09 Fair CLR 28.9 6.1 24% 27 75.79 1009.8
19 11:56 Vrbl 7 16.09 Fair CLR 26.7 5 25% 26 75.82 1010.2
19 10:56 Calm 16.09 Fair CLR 23.9 4.4 23.9 9.4 28% 25 75.84 1010.5
19 09:56 Calm 16.09 Fair CLR 20 5 38% 75.87 1010.7
19 08:56 Calm 16.09 A Few Clouds FEW048 16.1 4.4 46% 75.87 1011.0
19 07:56 Calm 16.09 Fair CLR 12.8 3.9 55% 75.87 1010.9
19 06:56 Calm 16.09 Fair CLR 10 3.3 63% 75.84 1010.5
19 05:56 Calm 16.09 Fair CLR 9.4 2.8 64% 75.79 1009.8
19 04:56 Calm 16.09 Fair CLR 10 2.8 16.1 9.4 61% 75.79 1009.6
19 03:56 Calm 16.09 Fair CLR 10.6 3.3 61% 75.79 1009.6
19 02:56 Calm 16.09 Fair CLR 11.1 2.8 57% 75.77 1009.4
19 01:56 Calm 16.09 Fair CLR 12.8 2.8 51% 75.79 1009.7
19 00:56 Calm 16.09 Fair CLR 12.8 2.2 49% 75.82 1010.1
18 23:56 W 6 16.09 Fair CLR 15.6 -2.2 30% 75.84 1010.4
18 22:56 Calm 16.09 Fair CLR 15.6 -2.2 28.9 15.6 30% 75.84 1010.6
18 21:56 Calm 16.09 Fair CLR 17.2 -1.7 28% 75.84 1010.4
18 20:56 NW 15 16.09 Fair CLR 21.7 -5 16% 75.79 1009.9
18 19:56 N 22 16.09 Fair CLR 22.8 -2.8 18% 75.77 1009.4
18 18:56 N 19 16.09 Fair CLR 25.6 -2.2 16% 25 75.74 1009.2
18 17:56 Calm 16.09 Fair CLR 27.2 -4.4 12% 26 75.72 1008.8
18 16:56 W 15 16.09 Fair CLR 28.9 -3.3 31.1 24.4 12% 27 75.69 1008.4
18 15:56 W 20 16.09 Fair CLR 30 -1.1 13% 28 75.69 1008.5
18 14:56 NW 15 G 31 16.09 Fair CLR 30.6 -6.1 9% 29 75.72 1008.5
18 13:56 N 17 16.09 Fair CLR 30 -2.2 12% 28 75.72 1008.6
18 12:56 W 7 16.09 Fair CLR 29.4 0.6 15% 28 75.74 1008.9
18 11:56 SE 7 16.09 Fair CLR 26.7 6.7 28% 26 75.77 1009.4
18 10:56 E 7 16.09 Fair CLR 24.4 6.7 25 9.4 32% 25 75.79 1009.8
18 09:56 S 6 16.09 Fair CLR 21.7 7.8 41% 75.84 1010.3
Date Time (pdt) Wind (kph) Vis. (km) Weather Sky Cond. Air Dwpt Max. Min. Relative Humidity Wind Chill (°C) Heat Index (°C) altimeter (cm) sea level (mb) 1 hr 3 hr 6 hr
6 hour
Temperature (ºC) Pressure Precipitation (cm)